Location: Tom
(33.0437°N, 96.9452°W)
Time: 13:51:20
(UTC-05:00)

N. Korean satellite - Visible Passes

Search period start: 03 August 2020 00:00
Search period end: 13 August 2020 00:00
Orbit: 453 x 506 km, 97.2° (Epoch: 02 August)

Date Brightness Start Highest point End Pass type
(mag) Time Alt. Az. Time Alt. Az. Time Alt. Az.
03 Aug 9.4 06:17:00 10° NE 06:19:34 19° E 06:22:10 10° SE visible
07 Aug 9.6 06:07:22 10° ENE 06:09:22 14° E 06:11:21 10° SE visible
10 Aug 9.2 06:22:11 10° NE 06:25:06 24° E 06:28:03 10° SSE visible
11 Aug 10.0 05:58:19 10° E 05:59:06 11° E 05:59:52 10° ESE visible
